Weather History for Beaumont, TX

Change the Weather History Date:

Monday, November 4, 2013

  Actual Average Record
Temperature  
Mean Temperature 65 °F 65 °F  
Max Temperature 77 °F 75 °F 87 °F (1915)
Min Temperature 52 °F 55 °F 32 °F (1991)
Degree Days  
Heating Degree Days 0 3  
Month to date heating degree days 9 12  
Since 1 July heating degree days 18 46  
Cooling Degree Days 0 3  
Month to date cooling degree days 4 14  
Year to date cooling degree days 2949 2805  
Growing Degree Days 15 (Base 50)    
Moisture  
Dew Point 58 °F    
Average Humidity 73    
Maximum Humidity 89    
Minimum Humidity 56    
Precipitation  
Precipitation 0.00 in 0.16 in 7.70 in (1946)
Month to date precipitation 0.26 0.60  
Year to date precipitation 51.39 51.38  
Snow  
Snow 0.00 in 0.00 in 0.00 in ()
Month to date snowfall 0.0 0.0  
Since 1 July snowfall 0.0 0.0  
Since 1 September snowfall 0.0 0.0  
Snow Depth 0.00 in    
Sea Level Pressure  
Sea Level Pressure 30.08 in    
Wind  
Wind Speed 13 mph (East)    
Max Wind Speed 22 mph    
Max Gust Speed 29 mph    
Visibility 10 miles    
Events      
T = Trace of Precipitation, MM = Missing Value Source: NWS Daily Summary

Daily Weather History Graph

Daily Weather History Graph

Search for Another Location

Airport:

Trip Planner

Search our weather history database for the weather conditions in past years. The results will help you decide how hot, cold, wet, or windy it might be!

Date:

Astronomy

Nov. 04, 2013 Rise Set
Actual Time 6:32 AM CST 5:26 PM CST
Civil Twilight 6:07 AM CST 5:51 PM CST
Nautical Twilight 5:39 AM CST 6:19 PM CST
Astronomical Twilight 5:11 AM CST 6:47 PM CST
Moon 7:39 AM CST (11/4) 6:36 PM CST (11/4)
Length of Visible Light 11h 43m
Length of Day
10h 54m
New Moon, 2% of the Moon is Illuminated
Nov 4
New Moon
Nov 9
First Quarter
Nov 17
Full
Nov 25
Last Quarter
Dec 2
New

Hourly Weather History & Observations

Time (CST) Temp. Dew Point Humidity Pressure Visibility Wind Dir Wind Speed Gust Speed Precip Events Conditions
12:53 AM 53.1 °F 48.9 °F 86% 30.10 in 10.0 mi North 4.6 mph - N/A   Clear
1:53 AM 53.1 °F 50.0 °F 89% 30.09 in 10.0 mi NE 5.8 mph - N/A   Clear
2:53 AM 54.0 °F 50.0 °F 86% 30.08 in 10.0 mi NE 4.6 mph - N/A   Clear
3:53 AM 59.0 °F 54.0 °F 83% 30.07 in 10.0 mi East 10.4 mph - N/A   Mostly Cloudy
4:53 AM 60.1 °F 54.0 °F 80% 30.07 in 10.0 mi East 11.5 mph - N/A   Clear
5:53 AM 60.1 °F 53.1 °F 78% 30.08 in 10.0 mi East 11.5 mph - N/A   Scattered Clouds
6:53 AM 60.1 °F 54.0 °F 80% 30.10 in 10.0 mi East 11.5 mph - N/A   Mostly Cloudy
7:53 AM 63.0 °F 55.0 °F 75% 30.10 in 10.0 mi East 11.5 mph - N/A   Mostly Cloudy
8:53 AM 66.0 °F 57.0 °F 73% 30.14 in 10.0 mi ENE 10.4 mph - N/A   Mostly Cloudy
9:53 AM 70.0 °F 57.9 °F 65% 30.14 in 10.0 mi ESE 11.5 mph - N/A   Overcast
10:53 AM 73.0 °F 60.1 °F 64% 30.13 in 10.0 mi ESE 17.3 mph 23.0 mph N/A   Clear
11:53 AM 77.0 °F 61.0 °F 58% 30.10 in 10.0 mi ESE 17.3 mph 23.0 mph N/A   Clear
12:53 PM 75.9 °F 61.0 °F 60% 30.08 in 10.0 mi ESE 21.9 mph 27.6 mph N/A   Clear
1:53 PM 75.9 °F 62.1 °F 62% 30.06 in 10.0 mi ESE 19.6 mph 26.5 mph N/A   Overcast
2:53 PM 73.9 °F 62.1 °F 66% 30.06 in 10.0 mi ESE 15.0 mph 23.0 mph N/A   Overcast
3:53 PM 73.9 °F 62.1 °F 66% 30.05 in 10.0 mi ESE 18.4 mph 27.6 mph N/A   Partly Cloudy
4:53 PM 72.0 °F 63.0 °F 73% 30.05 in 10.0 mi East 16.1 mph 23.0 mph N/A   Mostly Cloudy
5:53 PM 71.1 °F 63.0 °F 75% 30.06 in 6.0 mi ESE 13.8 mph - N/A   Haze
6:53 PM 70.0 °F 63.0 °F 78% 30.08 in 7.0 mi East 13.8 mph - N/A   Overcast
7:53 PM 70.0 °F 63.0 °F 78% 30.08 in 10.0 mi East 16.1 mph - N/A   Partly Cloudy
8:53 PM 69.1 °F 62.1 °F 78% 30.08 in 10.0 mi ESE 11.5 mph - N/A   Clear
9:53 PM 69.1 °F 62.1 °F 78% 30.08 in 10.0 mi East 11.5 mph 20.7 mph N/A   Partly Cloudy
10:53 PM 68.0 °F 62.1 °F 81% 30.08 in 10.0 mi East 13.8 mph - N/A   Overcast
11:53 PM 68.0 °F 61.0 °F 78% 30.07 in 10.0 mi East 13.8 mph - N/A   Scattered Clouds